Total_Precipitation_Accumulation
0.02 0.00 0.00 0.00 0.01 0.04 0.03 0.00 0.00 0.00 0.02 0.06 0.09 0.13 0.16 0.16 0.23 0.31 0.27 0.26 0.28 0.26 0.30 0.25 0.21 0.11 0.00 0.02 0.02 0.02 0.02 0.03 0.03 0.01 0.01 0.03 0.06 0.05 0.05 0.08 0.05 0.12 0.25
0.01 0.00 0.00 0.00 0.01 0.06 0.11 0.05 0.02 0.01 0.02 0.05 0.10 0.12 0.16 0.21 0.32 0.40 0.38 0.37 0.41 0.33 0.33 0.27 0.23 0.19 0.12 0.12 0.08 0.05 0.05 0.05 0.03 0.02 0.01 0.00 0.03 0.04 0.03 0.04 0.03 0.09 0.14
0.01 0.00 0.00 0.00 0.00 0.02 0.06 0.07 0.05 0.03 0.02 0.05 0.08 0.16 0.27 0.33 0.50 0.51 0.37 0.33 0.54 0.69 0.54 0.40 0.37 0.49 0.45 0.27 0.11 0.07 0.06 0.06 0.04 0.02 0.01 0.08 0.17 0.10 0.08 0.04 0.03 0.05 0.09
0.01 0.00 0.00 0.00 0.00 0.00 0.00 0.00 0.00 0.00 0.01 0.02 0.03 0.07 0.28 0.35 0.33 0.31 0.44 0.41 0.43 0.47 0.59 0.50 0.75 1.15 0.97 0.72 0.34 0.17 0.11 0.05 0.02 0.02 0.02 0.10 0.18 0.16 0.12 0.05 0.06 0.05 0.06
0.01 0.00 0.00 0.00 0.00 0.00 0.00 0.00 0.00 0.00 0.00 0.00 0.01 0.05 0.12 0.12 0.25 0.24 0.44 0.33 0.19 0.18 0.45 0.60 0.71 0.93 0.83 0.98 1.08 0.69 0.31 0.08 0.02 0.02 0.04 0.02 0.11 0.18 0.12 0.07 0.07 0.09 0.05
0.00 0.00 0.00 0.00 0.00 0.00 0.00 0.00 0.00 0.00 0.00 0.00 0.00 0.01 0.07 0.08 0.13 0.18 0.39 0.46 0.51 0.44 0.77 1.15 1.76 1.28 0.72 1.05 1.11 0.71 0.30 0.04 0.01 0.02 0.08 0.06 0.12 0.19 0.14 0.11 0.09 0.08 0.08
0.00 0.00 0.00 0.00 0.00 0.00 0.00 0.00 0.00 0.00 0.00 0.00 0.00 0.00 0.00 0.01 0.03 0.05 0.07 0.19 0.52 1.17 1.32 1.12 1.24 1.41 0.98 0.29 0.15 0.21 0.14 0.05 0.07 0.13 0.14 0.10 0.14 0.16 0.15 0.16 0.15 0.10 0.08
0.00 0.00 0.00 0.00 0.00 0.00 0.00 0.00 0.00 0.00 0.00 0.00 0.00 0.00 0.00 0.00 0.00 0.00 0.01 0.04 0.07 0.10 0.15 0.16 0.14 0.11 0.16 0.09 0.03 0.03 0.04 0.05 0.05 0.16 0.17 0.16 0.14 0.09 0.07 0.13 0.11 0.08 0.07
0.00 0.00 0.00 0.00 0.00 0.00 0.00 0.00 0.00 0.00 0.00 0.00 0.00 0.00 0.01 0.01 0.00 0.00 0.00 0.00 0.00 0.03 0.06 0.09 0.08 0.02 0.01 0.01 0.01 0.01 0.01 0.01 0.05 0.08 0.07 0.06 0.08 0.11 0.17 0.20 0.15 0.13 0.08
0.00 0.00 0.00 0.00 0.00 0.00 0.00 0.00 0.00 0.00 0.00 0.00 0.00 0.00 0.00 0.00 0.00 0.00 0.01 0.01 0.01 0.03 0.05 0.07 0.08 0.03 0.02 0.00 0.00 0.00 0.00 0.00 0.00 0.00 0.00 0.01 0.04 0.07 0.17 0.29 0.27 0.24 0.18
0.00 0.00 0.00 0.00 0.00 0.00 0.00 0.00 0.00 0.00 0.00 0.00 0.00 0.00 0.00 0.02 0.00 0.00 0.02 0.03 0.04 0.03 0.04 0.06 0.09 0.05 0.01 0.00 0.00 0.00 0.00 0.00 0.00 0.00 0.00 0.00 0.02 0.06 0.13 0.19 0.24 0.25 0.24
0.01 0.00 0.00 0.00 0.00 0.00 0.00 0.00 0.02 0.02 0.00 0.00 0.01 0.00 0.00 0.01 0.00 0.00 0.01 0.04 0.07 0.06 0.06 0.13 0.15 0.08 0.04 0.04 0.02 0.00 0.00 0.00 0.00 0.00 0.01 0.00 0.02 0.03 0.10 0.16 0.17 0.16 0.16
0.00 0.00 0.00 0.00 0.00 0.00 0.00 0.00 0.02 0.01 0.00 0.00 0.00 0.00 0.00 0.00 0.00 0.00 0.00 0.02 0.09 0.10 0.18 0.18 0.37 0.41 0.34 0.20 0.11 0.09 0.03 0.00 0.00 0.00 0.00 0.00 0.02 0.02 0.10 0.17 0.18 0.20 0.22
0.00 0.00 0.00 0.00 0.00 0.00 0.00 0.00 0.00 0.00 0.00 0.00 0.00 0.00 0.00 0.00 0.00 0.00 0.00 0.00 0.04 0.08 0.10 0.19 0.39 0.33 0.26 0.31 0.28 0.16 0.08 0.04 0.01 0.01 0.01 0.01 0.01 0.00 0.00 0.04 0.15 0.25 0.24
0.00 0.00 0.00 0.00 0.00 0.00 0.00 0.00 0.00 0.00 0.00 0.00 0.00 0.00 0.00 0.00 0.00 0.00 0.00 0.00 0.00 0.00 0.03 0.04 0.06 0.12 0.14 0.13 0.11 0.11 0.07 0.05 0.03 0.01 0.00 0.01 0.01 0.01 0.00 0.00 0.04 0.17 0.27
0.00 0.00 0.00 0.00 0.00 0.00 0.00 0.00 0.00 0.00 0.00 0.00 0.00 0.00 0.00 0.00 0.00 0.00 0.00 0.00 0.00 0.01 0.01 0.02 0.03 0.04 0.05 0.06 0.10 0.10 0.06 0.05 0.03 0.03 0.02 0.02 0.02 0.01 0.00 0.01 0.01 0.08 0.22
0.00 0.00 0.00 0.00 0.00 0.00 0.00 0.00 0.00 0.00 0.00 0.00 0.00 0.00 0.00 0.00 0.00 0.00 0.00 0.00 0.00 0.00 0.00 0.00 0.00 0.02 0.04 0.07 0.12 0.19 0.16 0.09 0.06 0.05 0.04 0.05 0.06 0.08 0.07 0.01 0.00 0.03 0.10
0.00 0.00 0.00 0.00 0.10 0.06 0.02 0.00 0.00 0.00 0.00 0.00 0.00 0.00 0.00 0.00 0.00 0.00 0.00 0.00 0.00 0.00 0.00 0.00 0.00 0.00 0.01 0.04 0.05 0.04 0.02 0.04 0.04 0.03 0.02 0.03 0.07 0.11 0.16 0.15 0.08 0.04 0.05
0.00 0.00 0.01 0.00 0.04 0.14 0.11 0.03 0.00 0.00 0.00 0.00 0.00 0.00 0.00 0.00 0.00 0.00 0.00 0.00 0.00 0.00 0.00 0.00 0.00 0.00 0.00 0.00 0.00 0.01 0.01 0.01 0.02 0.03 0.02 0.01 0.01 0.03 0.08 0.10 0.13 0.13 0.11
0.00 0.00 0.02 0.01 0.06 0.08 0.07 0.02 0.01 0.00 0.00 0.00 0.00 0.00 0.00 0.00 0.00 0.00 0.00 0.00 0.00 0.00 0.00 0.00 0.00 0.00 0.00 0.00 0.00 0.00 0.00 0.02 0.02 0.03 0.03 0.02 0.02 0.02 0.02 0.04 0.05 0.07 0.11
0.01 0.01 0.01 0.00 0.06 0.05 0.02 0.01 0.00 0.00 0.00 0.00 0.00 0.00 0.00 0.00 0.00 0.00 0.00 0.00 0.00 0.00 0.00 0.00 0.00 0.00 0.00 0.00 0.01 0.00 0.00 0.00 0.01 0.04 0.05 0.08 0.08 0.07 0.05 0.05 0.06 0.04 0.04
0.01 0.00 0.00 0.00 0.00 0.00 0.00 0.00 0.00 0.00 0.00 0.00 0.00 0.00 0.00 0.00 0.00 0.00 0.00 0.00 0.00 0.00 0.00 0.00 0.00 0.00 0.00 0.00 0.01 0.01 0.00 0.00 0.00 0.01 0.03 0.07 0.08 0.12 0.12 0.08 0.08 0.07 0.03
0.00 0.00 0.00 0.00 0.00 0.00 0.00 0.00 0.00 0.00 0.00 0.00 0.00 0.00 0.00 0.00 0.00 0.00 0.00 0.00 0.00 0.00 0.00 0.00 0.00 0.00 0.00 0.00 0.00 0.02 0.02 0.01 0.01 0.00 0.01 0.05 0.07 0.07 0.08 0.09 0.08 0.09 0.06
0.00 0.00 0.00 0.00 0.00 0.00 0.00 0.00 0.00 0.00 0.00 0.00 0.00 0.00 0.00 0.00 0.00 0.00 0.00 0.00 0.00 0.00 0.00 0.00 0.00 0.00 0.00 0.00 0.00 0.00 0.02 0.05 0.04 0.02 0.00 0.00 0.04 0.07 0.11 0.13 0.14 0.13 0.11
0.00 0.00 0.00 0.00 0.00 0.00 0.00 0.00 0.00 0.00 0.00 0.00 0.00 0.00 0.00 0.00 0.00 0.00 0.00 0.00 0.00 0.00 0.00 0.00 0.00 0.00 0.00 0.00 0.00 0.00 0.01 0.01 0.01 0.03 0.01 0.01 0.03 0.05 0.06 0.11 0.15 0.21 0.25
0.00 0.00 0.00 0.00 0.00 0.00 0.00 0.00 0.00 0.00 0.00 0.00 0.00 0.00 0.00 0.00 0.00 0.00 0.00 0.00 0.00 0.00 0.00 0.00 0.00 0.00 0.00 0.00 0.00 0.00 0.00 0.00 0.00 0.01 0.01 0.00 0.03 0.07 0.04 0.07 0.08 0.12 0.18